Location: Brachbach
(49.1847°N, 9.7240°E)
Time: 05:19:37
(UTC+00:00)

Cosmos 2219 Rocket - Pass Details

Date: 13 August 2024
Orbit: 826 x 846 km, 71.0° (Epoch: 16 September)

Event Time Altitude Azimuth Distance (km) Brightness Sun altitude
Exits shadow 23:04:28 25° 94° (E) 1,643 3.6 -26.4°
Drops below altitude 10° 23:08:31 10° 49° (NE) 2,478 5.0 -26.4°
Sets 23:11:21 0° 37° (NE) 3,419 6.1 -26.5°
